Location: ????????
(48.4751°N, 37.6926°E)
Time: 12:54:40
(UTC+00:00)

CZ-2D R/B - Pass Details

Date: 20 January 2021
Orbit: 520 x 538 km, 97.4° (Epoch: 26 February)

Event Time Altitude Azimuth Distance (km) Brightness Sun altitude
Rises 15:15:10 0° 153° (SSE) 2,675 6.7 -10.8°
Reaches altitude 10° 15:17:18 10° 149° (SSE) 1,786 5.8 -11.1°
Maximum altitude 15:21:03 52° 73° (ENE) 672 3.4 -11.7°
Drops below altitude 10° 15:24:49 10° 356° (N) 1,791 5.8 -12.3°
Sets 15:26:58 0° 352° (N) 2,683 6.8 -12.7°
